Location: Im Fang
(46.6019°N, 7.2397°E)
Time: 23:28:02
(UTC+00:00)

Cosmos 1378 Rocket - Pass Details

Date: 08 December 2019
Orbit: 602 x 627 km, 82.5° (Epoch: 26 January)

Event Time Altitude Azimuth Distance (km) Brightness Sun altitude
Rises 06:17:57 0° 352° (N) 2,902 6.7 -7.4°
Reaches altitude 10° 06:20:11 10° 353° (N) 1,995 5.9 -7.1°
Maximum altitude 06:24:37 79° 81° (E) 640 3.8 -6.4°
Drops below altitude 10° 06:29:02 10° 168° (SSE) 1,992 6.8 -5.7°
Sets 06:31:15 0° 169° (S) 2,896 7.6 -5.4°
